Flag for Germany Weather past 2 weeks in Burgdorf, Lower Saxony, Germany

Now
73 °F

Passing clouds.


Feels Like: 77 °F
Forecast: 56 / 71 °F
Wind: 8 mph from East

Location: Celle Airport

Current Time: Sep 17, 2014 at 6:54:30 PM

Latest Report: Sep 17, 2014 at 6:20 PM


Visibility: N/A

Pressure: 29.95 "Hg

Humidity: 53%

Dew point: 55 °F

Location of BurgdorfLocation

Historic Weather in Burgdorf — Graph

°F

Burgdorf temperature yesterday

Maximum temperature yesterday: 75 °F (at 3:20 PM)
Minimum temperature yesterday: 55 °F (at 7:20 AM)
Average temperature yesterday: 65 °F

Past Weeks' High & Low Weather Summary

 TemperatureHumidityPressure
High79 °F (Sep 6, 2:20 PM)100% (Sep 2, 10:20 PM)30.30 "Hg (Sep 2, 10:20 PM)
Low48 °F (Sep 3, 6:20 AM)47% (Sep 17, 4:20 PM)29.86 "Hg (Sep 6, 3:20 PM)
Average62 °F83%30.08 "Hg
* Reported Sep 2 5:20 PM — Sep 17 5:20 PM, Burgdorf, Weather by CustomWeather, © 2014

Note: Actual official high and low records may vary slightly from our data, if they occured in-between our weather recording intervals... More about our weather records

Advertising

Burgdorf weather history for previous 24 hours

 ConditionsComfort  
Time TempWeatherWind HumidityBarometerVisibility
5:20 PM
Sep 17
75 °FPassing clouds.13 mph50%29.95 "HgN/A
4:20 PM75 °FPassing clouds.14 mph47%29.95 "HgN/A
3:20 PM75 °FPassing clouds.14 mph50%29.95 "HgN/A
2:20 PM73 °FScattered clouds.14 mph53%29.98 "HgN/A
1:20 PM70 °FScattered clouds.10 mph64%29.98 "HgN/A
12:20 PM70 °FScattered clouds.10 mph64%29.98 "HgN/A
11:20 AM64 °FScattered clouds.8 mph78%30.01 "HgN/A
10:20 AM63 °FPartly sunny.9 mph83%30.01 "HgN/A
9:20 AM59 °FPartly sunny.9 mph88%30.01 "Hg6 mi
8:20 AM59 °FPartly sunny.8 mph88%30.01 "Hg6 mi
7:20 AM57 °FPassing clouds.7 mph94%30.01 "Hg6 mi
6:20 AM59 °FPassing clouds.8 mph88%30.01 "Hg6 mi
5:20 AM59 °FPassing clouds.7 mph88%30.01 "HgN/A
4:20 AM61 °FPassing clouds.7 mph83%30.01 "HgN/A
3:20 AM63 °FPassing clouds.8 mph83%30.01 "HgN/A
2:20 AM63 °FPassing clouds.8 mph88%30.04 "HgN/A
1:20 AM63 °FPassing clouds.5 mph88%30.04 "HgN/A
12:20 AM63 °FPassing clouds.5 mph88%30.04 "HgN/A
11:20 PM
Sep 16
64 °FPassing clouds.6 mph83%30.04 "HgN/A
10:20 PM66 °FPassing clouds.6 mph78%30.04 "HgN/A
9:20 PM66 °FPassing clouds.6 mph83%30.04 "HgN/A
8:20 PM68 °FScattered clouds.6 mph78%30.04 "HgN/A
7:20 PM72 °FScattered clouds.8 mph69%30.01 "HgN/A
6:20 PM72 °FScattered clouds.9 mph73%30.01 "HgN/A
Weather by CustomWeather, © 2014

See weather overviewHow to use our weather pages